Oslo Airport, Norway

9:54 AM CEST on May 27, 2017 (GMT +0200)
Gardermoen

Weather History for ENGM - May, 2013

Change the Weather History Date:

Wednesday, May 8, 2013

  Actual Average Record
Temperature  
Mean Temperature 54 °F -  
Max Temperature 68 °F 59 °F 73 °F (2000)
Min Temperature 41 °F 41 °F 32 °F (1997)
Degree Days  
Heating Degree Days 10    
Growing Degree Days 4 (Base 50)    
Moisture  
Dew Point 42 °F    
Average Humidity 67    
Maximum Humidity 94    
Minimum Humidity 29    
Precipitation  
Precipitation 0.16 in 0.08 in - ()
Sea Level Pressure  
Sea Level Pressure 30.05 in    
Wind  
Wind Speed 5 mph ()    
Max Wind Speed 17 mph    
Max Gust Speed 24 mph    
Visibility 5.8 miles    
Events Rain    
Averages and records for this station are not official NWS values.
T = Trace of Precipitation, MM = Missing Value Source: Averaged Metar Reports

Daily Weather History Graph

Daily Weather History Graph

Search for Another Location

Airport or City:

Trip Planner

Search our weather history database for the weather conditions in past years. The results will help you decide how hot, cold, wet, or windy it might be!

Date:

Astronomy

May. 08, 2013 Rise Set
Actual Time 4:53 AM CEST 9:32 PM CEST
Civil Twilight 3:55 AM CEST 10:31 PM CEST
Nautical Twilight 2:04 AM CEST 12:29 AM CEST
Astronomical Twilight Sun does not set Sun does not set
Moon 4:19 AM CEST (5/8) 7:56 PM CEST (5/8)
Length of Visible Light 18h 36m
Length of Day
16h 38m
Waning Crescent, 2% of the Moon is Illuminated
May 8
Waning Crescent
May 10
New
May 18
First Quarter
May 25
Full
May 31
Last Quarter

Hourly Weather History & Observations

Time (CEST) Temp. Windchill Dew Point Humidity Pressure Visibility Wind Dir Wind Speed Gust Speed Precip Events Conditions
12:20 AM 50.0 °F - 39.2 °F 66% 30.15 in - Variable 2.3 mph - N/A   Clear
12:50 AM 48.2 °F - 39.2 °F 71% 30.18 in - Variable 2.3 mph - N/A   Clear
1:20 AM 48.2 °F - 41.0 °F 76% 30.15 in - North 2.3 mph - N/A   Clear
1:50 AM 44.6 °F 43.1 °F 37.4 °F 76% 30.15 in - North 3.5 mph - N/A   Clear
2:00 AM 47 °F - 39 °F 67%  in 40 mi NNE 6.7 mph - -   Partly Cloudy
2:50 AM 44.6 °F 42.2 °F 39.2 °F 81% 30.15 in - NNW 4.6 mph - N/A   Clear
3:20 AM 42.8 °F 41.1 °F 35.6 °F 76% 30.15 in - North 3.5 mph - N/A   Clear
3:50 AM 41.0 °F 37.1 °F 37.4 °F 87% 30.15 in - North 5.8 mph - N/A   Clear
4:20 AM 41.0 °F - 37.4 °F 87% 30.15 in - Variable 2.3 mph - N/A   Clear
4:50 AM 41.0 °F 39.0 °F 37.4 °F 87% 30.15 in - NNW 3.5 mph - N/A   Clear
5:20 AM 41.0 °F 39.0 °F 35.6 °F 81% 30.15 in - North 3.5 mph - N/A   Clear
5:50 AM 41.0 °F - 37.4 °F 87% 30.15 in - Variable 2.3 mph - N/A   Clear
6:20 AM 42.8 °F - 37.4 °F 81% 30.15 in - Variable 2.3 mph - N/A   Clear
6:50 AM 46.4 °F 43.5 °F 39.2 °F 76% 30.15 in - NE 5.8 mph - N/A   Clear
7:20 AM 48.2 °F - 39.2 °F 71% 30.15 in - NE 5.8 mph - N/A   Clear
7:50 AM 50.0 °F - 39.2 °F 66% 30.15 in - NE 6.9 mph - N/A   Clear
8:00 AM 50 °F - 40 °F 59%  in 44 mi NNE 6.7 mph - -   Partly Cloudy
8:20 AM 51.8 °F - 39.2 °F 62% 30.15 in - NNE 9.2 mph - N/A   Clear
8:50 AM 53.6 °F - 39.2 °F 58% 30.15 in - NNE 6.9 mph - N/A   Clear
9:20 AM 55.4 °F - 39.2 °F 54% 30.15 in - NE 8.1 mph - N/A   Clear
9:50 AM 57.2 °F - 41.0 °F 55% 30.15 in - NE 4.6 mph - N/A   Clear
10:20 AM 59.0 °F - 42.8 °F 55% 30.12 in - NE 4.6 mph - N/A   Clear
10:50 AM 60.8 °F - 42.8 °F 52% 30.12 in - Variable 5.8 mph - N/A   Clear
11:20 AM 62.6 °F - 42.8 °F 48% 30.09 in - Variable 4.6 mph - N/A   Clear
11:50 AM 62.6 °F - 42.8 °F 48% 30.09 in - Variable 5.8 mph - N/A   Clear
12:20 PM 64.4 °F - 41.0 °F 42% 30.06 in - East 6.9 mph - N/A   Clear
12:50 PM 66.2 °F - 42.8 °F 43% 30.06 in - ENE 8.1 mph - N/A   Clear
1:20 PM 66.2 °F - 41.0 °F 40% 30.04 in - ESE 11.5 mph - N/A   Clear
1:50 PM 66.2 °F - 41.0 °F 40% 30.04 in - ESE 10.4 mph - N/A   Clear
2:00 PM 67 °F - 42 °F 29%  in 37 mi ESE 11.2 mph - -   Partly Cloudy
2:20 PM 66.2 °F - 39.2 °F 37% 30.04 in - ESE 13.8 mph - N/A   Clear
2:50 PM 68.0 °F - 41.0 °F 37% 30.01 in - SE 12.7 mph 24.2 mph N/A   Clear
3:20 PM 66.2 °F - 41.0 °F 40% 30.01 in - ESE 12.7 mph - N/A   Clear
3:50 PM 66.2 °F - 39.2 °F 37% 29.98 in - ESE 10.4 mph - N/A   Clear
4:20 PM 66.2 °F - 39.2 °F 37% 29.98 in - SE 15.0 mph - N/A   Clear
4:50 PM 66.2 °F - 39.2 °F 37% 29.95 in - SE 16.1 mph - N/A   Clear
5:20 PM 64.4 °F - 39.2 °F 40% 29.95 in 6.2 mi ESE 17.3 mph - N/A   Mostly Cloudy
5:50 PM 57.2 °F - 48.2 °F 72% 29.95 in 6.2 mi SSE 13.8 mph - N/A Rain Light Rain
6:20 PM 55.4 °F - 48.2 °F 77% 29.95 in 6.2 mi ESE 8.1 mph - N/A Rain Light Rain
6:50 PM 53.6 °F - 50.0 °F 88% 29.95 in 5.6 mi East 4.6 mph - N/A Rain Light Rain
7:20 PM 53.6 °F - 50.0 °F 88% 29.95 in 5.0 mi East 4.6 mph - N/A Rain Light Rain
7:50 PM 51.8 °F - 50.0 °F 94% 29.92 in 5.6 mi NE 5.8 mph - N/A Rain Light Rain
8:00 PM 52 °F - 50 °F 91%  in 11 mi NE 6.7 mph - - Rain Light Rain
8:20 PM 51.8 °F - 48.2 °F 88% 29.92 in 5.6 mi NE 8.1 mph - N/A Rain Light Rain
8:50 PM 51.8 °F - 48.2 °F 88% 29.92 in 6.2 mi ENE 6.9 mph - N/A Rain Light Rain
9:20 PM 51.8 °F - 48.2 °F 88% 29.89 in 5.6 mi ENE 5.8 mph - N/A Rain Light Rain
9:50 PM 51.8 °F - 48.2 °F 88% 29.89 in 5.6 mi ENE 6.9 mph - N/A Rain Light Rain
10:20 PM 50.0 °F - 48.2 °F 94% 29.89 in 5.0 mi ENE 5.8 mph - N/A Rain Light Rain
10:50 PM 50.0 °F - 48.2 °F 94% 29.89 in 5.6 mi NE 5.8 mph - N/A Rain Light Rain
11:20 PM 50.0 °F - 48.2 °F 94% 29.86 in 3.7 mi NNE 5.8 mph - N/A Rain Light Rain
11:50 PM 50.0 °F - 48.2 °F 94% 29.86 in 3.7 mi NNE 5.8 mph - N/A Rain Light Rain